Location: Hartman Creek State Park
(44.3257°N, 89.2134°W)
Time: 19:22:33
(UTC-05:00)

Cosmos 2263 Rocket - Visible Passes

Search period start: 26 June 2016 00:00
Search period end: 06 July 2016 00:00
Orbit: 823 x 849 km, 71.0° (Epoch: 26 June)

Date Brightness Start Highest point End Pass type
(mag) Time Alt. Az. Time Alt. Az. Time Alt. Az.
26 Jun 4.2 00:51:58 13° ESE 00:53:07 14° E 00:55:59 10° ENE visible
26 Jun 2.2 02:33:39 35° SSW 02:36:14 86° WNW 02:41:57 10° NNE visible
26 Jun 4.2 04:17:24 10° W 04:21:02 17° NW 04:24:42 10° N visible
27 Jun 4.2 00:35:36 12° ESE 00:36:29 13° E 00:38:56 10° ENE visible
27 Jun 2.1 02:17:17 39° SSW 02:19:32 88° ESE 02:25:16 10° NNE visible
27 Jun 4.2 04:00:26 10° W 04:04:16 18° NW 04:08:07 10° N visible
28 Jun 4.3 00:19:12 11° ESE 00:19:52 12° E 00:21:46 10° ENE visible
28 Jun 2.1 02:00:53 43° SSW 02:02:51 82° ESE 02:08:33 10° NNE visible
28 Jun 4.1 03:43:29 10° W 03:47:30 19° NW 03:51:32 10° N visible
29 Jun 4.4 00:02:46 10° E 00:03:15 10° E 00:04:18 10° E visible
29 Jun 2.2 01:44:27 46° S 01:46:10 77° ESE 01:51:52 10° NNE visible
29 Jun 4.1 03:26:33 10° W 03:30:44 21° NW 03:34:56 10° N visible
30 Jun 2.2 01:27:59 49° S 01:29:29 71° ESE 01:35:09 10° NNE visible
30 Jun 4.0 03:09:40 10° W 03:13:59 22° NW 03:18:20 10° N visible
01 Jul 2.2 01:11:29 50° SSE 01:12:48 65° ESE 01:18:27 10° NNE visible
01 Jul 3.9 02:53:10 12° W 02:57:13 23° NW 03:01:43 10° N visible
02 Jul 2.3 00:54:57 49° SSE 00:56:08 60° ESE 01:01:44 10° NNE visible
02 Jul 3.9 02:36:37 13° W 02:40:29 25° NW 02:45:06 10° N visible
03 Jul 2.4 00:38:23 48° SSE 00:39:27 55° ESE 00:45:00 10° NNE visible
03 Jul 3.8 02:20:03 14° W 02:23:44 26° NW 02:28:28 10° N visible
04 Jul 2.4 00:21:46 45° SE 00:22:47 51° ESE 00:28:16 10° NE visible
04 Jul 3.7 02:03:26 16° WSW 02:06:59 28° NW 02:11:51 10° N visible
05 Jul 2.5 00:05:05 42° SE 00:06:07 47° ESE 00:11:32 10° NE visible
05 Jul 3.7 01:46:46 17° WSW 01:50:14 30° NW 01:55:13 10° N visible
05 Jul 2.6 23:48:23 39° SE 23:49:27 43° ESE 23:54:48 10° NE visible
